Precipitable_Water
1.12 1.01 0.92 0.83 0.73 0.63 0.61 0.69 0.86 0.98 1.02 0.99 0.98 0.97 0.98 1.02 1.06 1.08 1.05 0.96 0.93 0.93 0.99 0.99 0.98 0.95 0.97 1.02 1.03 1.04 1.08 1.03
0.78 0.69 0.63 0.55 0.46 0.42 0.45 0.49 0.55 0.67 0.79 0.83 0.82 0.81 0.79 0.76 0.76 0.87 0.95 1.02 1.04 0.96 0.91 0.92 0.93 0.90 0.87 0.93 1.04 1.08 1.12 1.11
0.54 0.54 0.52 0.44 0.38 0.40 0.42 0.44 0.45 0.50 0.56 0.61 0.65 0.63 0.58 0.57 0.56 0.60 0.65 0.69 0.78 0.91 0.96 0.88 0.86 0.87 0.89 0.87 0.93 1.07 1.15 1.21
0.49 0.50 0.44 0.40 0.36 0.39 0.42 0.42 0.40 0.39 0.39 0.37 0.33 0.31 0.28 0.25 0.25 0.26 0.30 0.33 0.37 0.45 0.57 0.74 0.88 0.90 0.89 0.91 0.91 0.91 1.05 1.18
0.43 0.45 0.43 0.36 0.33 0.34 0.37 0.37 0.37 0.35 0.34 0.33 0.30 0.26 0.24 0.22 0.21 0.21 0.21 0.21 0.20 0.21 0.22 0.29 0.41 0.58 0.75 0.90 0.91 0.92 0.96 1.10
0.42 0.44 0.40 0.36 0.32 0.28 0.32 0.32 0.32 0.30 0.29 0.30 0.27 0.25 0.26 0.26 0.26 0.25 0.24 0.25 0.22 0.21 0.26 0.33 0.36 0.37 0.41 0.52 0.63 0.84 1.00 1.13
0.41 0.43 0.40 0.38 0.35 0.32 0.31 0.29 0.29 0.29 0.30 0.33 0.33 0.32 0.33 0.34 0.35 0.35 0.34 0.33 0.31 0.28 0.34 0.37 0.37 0.41 0.43 0.42 0.44 0.52 0.68 1.00
0.41 0.43 0.43 0.42 0.39 0.35 0.33 0.34 0.36 0.37 0.39 0.41 0.43 0.43 0.44 0.44 0.44 0.44 0.44 0.43 0.40 0.38 0.38 0.42 0.41 0.44 0.43 0.46 0.44 0.44 0.46 0.51
0.41 0.45 0.46 0.44 0.45 0.43 0.42 0.42 0.43 0.43 0.45 0.49 0.51 0.52 0.52 0.52 0.51 0.51 0.53 0.53 0.49 0.45 0.41 0.43 0.47 0.48 0.47 0.48 0.47 0.46 0.46 0.48
0.44 0.47 0.46 0.46 0.48 0.48 0.48 0.48 0.48 0.49 0.50 0.52 0.54 0.55 0.56 0.55 0.54 0.54 0.57 0.57 0.56 0.52 0.48 0.45 0.42 0.47 0.48 0.49 0.51 0.52 0.50 0.48
0.40 0.43 0.45 0.47 0.49 0.50 0.49 0.50 0.50 0.52 0.54 0.54 0.55 0.57 0.58 0.57 0.57 0.58 0.58 0.57 0.56 0.57 0.55 0.51 0.47 0.45 0.46 0.47 0.51 0.52 0.50 0.48
0.40 0.42 0.45 0.48 0.49 0.49 0.48 0.49 0.51 0.53 0.53 0.53 0.54 0.54 0.56 0.57 0.58 0.58 0.58 0.57 0.57 0.59 0.57 0.58 0.53 0.49 0.46 0.43 0.50 0.52 0.53 0.51
0.39 0.39 0.45 0.45 0.44 0.42 0.42 0.41 0.45 0.49 0.53 0.56 0.56 0.54 0.57 0.58 0.58 0.58 0.60 0.58 0.59 0.60 0.58 0.55 0.54 0.56 0.47 0.43 0.44 0.46 0.52 0.53
0.38 0.38 0.39 0.41 0.41 0.41 0.42 0.44 0.47 0.51 0.55 0.56 0.57 0.56 0.57 0.56 0.56 0.54 0.55 0.53 0.51 0.51 0.53 0.53 0.55 0.57 0.51 0.46 0.38 0.41 0.45 0.48
0.37 0.37 0.39 0.41 0.44 0.43 0.44 0.47 0.49 0.51 0.53 0.54 0.56 0.57 0.55 0.53 0.50 0.47 0.45 0.44 0.44 0.48 0.50 0.51 0.48 0.54 0.57 0.50 0.41 0.38 0.44 0.51
0.41 0.39 0.40 0.42 0.45 0.43 0.44 0.42 0.42 0.51 0.53 0.53 0.53 0.55 0.52 0.48 0.43 0.40 0.42 0.44 0.45 0.46 0.47 0.47 0.45 0.42 0.48 0.51 0.58 0.56 0.43 0.37
0.43 0.41 0.43 0.46 0.49 0.50 0.47 0.46 0.52 0.57 0.58 0.55 0.54 0.52 0.49 0.45 0.44 0.43 0.42 0.43 0.45 0.46 0.44 0.42 0.41 0.38 0.37 0.39 0.41 0.43 0.51 0.41
0.46 0.44 0.44 0.50 0.53 0.54 0.54 0.56 0.58 0.58 0.58 0.55 0.52 0.50 0.48 0.46 0.46 0.46 0.45 0.43 0.44 0.45 0.45 0.42 0.40 0.39 0.36 0.36 0.35 0.33 0.34 0.34
0.48 0.48 0.46 0.53 0.56 0.58 0.62 0.66 0.66 0.64 0.62 0.57 0.52 0.49 0.46 0.46 0.47 0.48 0.46 0.45 0.44 0.43 0.42 0.42 0.40 0.38 0.37 0.34 0.35 0.34 0.35 0.33
0.48 0.50 0.49 0.53 0.59 0.64 0.69 0.71 0.68 0.67 0.64 0.58 0.52 0.48 0.46 0.47 0.47 0.48 0.45 0.44 0.42 0.39 0.39 0.40 0.40 0.38 0.35 0.36 0.33 0.33 0.33 0.32
Wind_Speed
7 7 8 9 10 10 10 10 9 9 9 9 9 10 10 10 10 10 10 10 10 10 10 9 9 10 10 10 10 10 9 9
6 7 8 9 10 10 10 10 10 10 10 9 10 10 10 11 11 11 11 11 11 10 10 10 10 10 10 11 11 11 11 11
6 7 8 9 10 10 10 10 10 10 10 10 11 11 11 11 12 12 12 12 12 12 12 12 12 12 12 12 11 11 12 13
6 7 8 9 9 10 10 10 11 11 11 11 11 12 12 12 12 12 12 12 13 13 14 14 14 14 14 14 13 13 13 13
6 6 8 9 9 9 10 11 11 11 12 12 12 12 13 13 13 13 14 14 14 14 15 15 15 16 16 16 16 15 15 14
5 6 7 8 9 9 9 10 11 11 12 12 13 13 13 14 14 14 15 15 16 16 15 15 16 16 16 17 17 17 17 16
4 5 7 8 9 9 9 10 11 11 12 12 13 13 14 14 15 16 16 17 17 18 17 17 16 16 16 16 15 16 16 16
3 4 6 7 8 9 9 10 10 11 11 12 13 14 15 15 16 17 18 18 19 19 19 18 17 17 16 15 14 14 14 15
3 4 5 6 8 8 9 10 10 10 11 12 14 15 16 16 17 18 19 20 21 21 21 20 19 18 17 16 15 15 14 15
4 4 5 6 7 7 8 9 9 10 11 12 14 15 17 17 18 19 20 21 22 23 24 22 21 20 19 18 17 17 16 16
5 6 5 5 6 7 8 9 10 11 12 14 15 16 18 19 20 21 22 23 24 25 25 25 25 23 22 21 20 19 18 18
6 6 6 6 7 8 9 10 11 13 14 16 17 18 19 21 22 23 24 25 25 26 26 27 27 26 24 23 23 22 22 21
8 8 8 8 9 10 11 12 13 14 16 18 18 20 21 23 24 25 25 26 27 28 29 30 29 28 27 25 22 23 23 23
9 9 10 10 11 12 12 13 14 16 18 19 20 21 22 23 25 26 28 28 29 31 31 32 31 30 27 26 24 23 22 25
11 11 12 13 13 13 14 14 15 17 19 20 22 23 24 25 26 27 29 30 31 32 33 33 32 31 29 25 24 23 27 21
13 13 14 14 14 14 16 17 18 19 20 22 24 25 26 27 28 29 31 32 33 34 34 34 32 30 28 27 26 26 25 25
14 14 15 16 16 17 17 18 19 21 23 24 25 27 28 28 30 31 32 34 35 35 35 34 32 30 28 27 27 27 25 26
17 16 17 18 18 19 20 20 22 23 25 26 28 29 30 30 32 33 34 36 36 36 35 34 33 30 29 27 26 26 28 28
20 19 19 20 21 21 22 23 25 26 27 28 29 30 31 32 33 35 37 37 37 37 36 36 33 31 29 29 28 28 29 30
23 22 22 22 23 24 26 26 27 27 29 30 31 31 32 33 36 38 38 38 38 38 38 36 33 31 30 30 30 30 31 32
Wind_Direction
41 32 25 18 13 11 11 11 9 7 4 1 358 357 355 350 348 346 342 339 335 332 327 322 318 314 311 308 305 299 296 297
35 27 21 17 13 13 14 15 13 11 8 3 358 354 351 349 344 340 337 335 332 329 327 324 320 318 312 306 301 296 291 290
34 26 17 15 16 19 18 16 13 10 5 1 356 352 349 346 343 338 334 329 325 321 319 317 314 311 311 307 300 296 293 290
27 22 18 17 17 19 20 19 17 14 9 5 1 359 356 352 349 345 341 334 327 321 316 311 308 305 303 301 299 295 293 291
28 23 20 19 18 17 18 17 15 13 12 9 6 4 1 358 354 351 346 342 335 328 322 316 310 305 300 296 293 292 290 289
27 22 20 18 17 17 15 14 13 12 12 10 9 7 5 2 359 355 351 347 342 336 329 323 318 312 305 299 293 287 285 285
17 19 18 17 18 16 14 13 13 13 13 13 12 10 6 2 359 355 351 346 343 339 332 328 323 318 312 306 300 294 287 281
9 12 11 12 13 14 13 14 14 15 17 17 14 9 5 2 359 355 352 348 344 340 334 326 322 318 315 310 305 300 295 288
343 350 356 2 7 11 13 14 15 17 15 12 9 7 5 3 0 358 355 350 347 344 338 330 322 316 311 307 303 301 297 294
315 325 334 344 356 3 6 8 9 7 3 360 359 359 357 356 353 351 349 347 345 341 339 334 326 315 307 302 298 295 294 293
305 312 315 327 338 348 351 350 349 348 347 346 345 345 346 346 345 343 340 339 339 339 336 333 329 321 308 297 292 291 291 289
297 306 302 310 319 327 332 333 334 334 334 333 333 334 335 336 336 335 335 335 334 335 332 329 326 321 314 302 288 285 285 285
287 292 293 298 305 312 317 321 324 328 330 330 328 328 329 330 331 332 332 331 330 331 329 327 324 320 313 308 294 285 281 283
279 285 289 292 299 303 309 315 319 323 326 329 329 328 327 327 328 328 328 327 327 327 327 325 321 320 313 306 299 293 281 286
273 279 285 290 294 297 304 309 312 316 320 323 325 326 325 324 325 325 326 325 324 324 324 324 321 317 314 305 299 292 295 281
272 277 283 289 292 295 299 302 306 310 314 317 319 321 322 323 322 323 324 323 323 322 323 322 320 317 312 307 300 295 291 287
271 278 282 287 291 295 298 300 305 308 311 313 316 318 319 320 322 322 321 321 321 321 321 321 319 315 312 307 302 298 292 288
269 276 280 285 290 294 296 298 302 305 309 311 313 315 316 317 319 320 320 320 320 319 319 319 317 314 310 307 303 299 295 292
267 273 278 283 288 293 297 299 302 304 307 309 311 312 313 314 316 318 318 318 318 317 316 315 314 311 309 306 302 299 296 293
266 271 277 281 287 292 296 298 301 304 306 308 310 311 312 313 314 316 316 316 316 316 315 313 312 310 308 305 302 299 296 293